Regional Weather Roundup
Issued by NWS

Home | Current Version | Previous Version | Text Only | Print | Product List | Glossary On
Versions: 1 2 3 4 5 6 7 8 9 10 11 12 13 14 15 16 17 18 19 20 21 22 23 24 25 26 27 28 29 30 31 32 33 34 35 36 37 38 39 40 41 42 43 44 45 46 47 48 49 50
000
ASUS44 KMEG 060610
RWRTN
TENNESSEE HOURLY STATE WEATHER ROUNDUP
NATIONAL WEATHER SERVICE MEMPHIS TN
100 AM CDT WED MAY 06 2015

TNZ002-004-019-021-049-052-054-088>092-060700-
WEST TENNESSEE

CITY           SKY/WX    TMP DP  RH WIND       PRES   REMARKS
MEMPHIS INTL   CLEAR     71  54  54 SE5       30.15F
NWS MEMPHIS      N/A     62 N/A N/A MISG        N/A
JACKSON        CLEAR     57  54  89 CALM      30.17F
DYERSBURG      CLEAR     64  45  48 SE5       30.17F
PARIS          CLEAR     57  54  88 CALM      30.19F
LEXINGTON      CLEAR     55  55 100 CALM      30.19S
$$

TNZ008-025-027-028-033-062-065-066-060700-
NORTH MIDDLE TENNESSEE

CITY           SKY/WX    TMP DP  RH WIND       PRES   REMARKS
NASHVILLE      MOCLDY    67  56  67 S3        30.21S
CLARKSVILLE    CLEAR     60  56  86 CALM      30.20S
SMYRNA         PTCLDY    63  59  87 CALM      30.22S
COOKEVILLE     MOCLDY    64  61  88 CALM      30.23S
CROSSVILLE     CLOUDY    65  54  67 CALM      30.27F
$$

TNZ061-075-076-078-094-096-097-060700-
SOUTH MIDDLE TENNESSEE

CITY           SKY/WX    TMP DP  RH WIND       PRES   REMARKS
FAYETTEVILLE     N/A     63  54  72 CALM      30.23S
TULLAHOMA      PTCLDY    61  55  82 CALM      30.24F
WINCHESTER     CLOUDY    64  57  77 CALM      30.23F
MCMINNVILLE    CLOUDY    64  63  94 CALM      30.23F
COLUMBIA       PTCLDY    57  55  94 CALM      30.20S
SHELBYVILLE    MOCLDY    63  61  94 CALM      30.23S
$$

TNZ017-018-042-046-047-060700-
NORTHEAST TENNESSEE

CITY           SKY/WX    TMP DP  RH WIND       PRES   REMARKS
TRI CITIES     PTCLDY    63  55  75 CALM      30.28R
ELIZABETHTON   MOCLDY    57  54  88 CALM      30.29S
$$

TNZ012-013-036-069-073-074-060700-
CENTRAL EAST TENNESSEE

CITY           SKY/WX    TMP DP  RH WIND       PRES   REMARKS
KNOXVILLE      MOCLDY    67  55  65 NW3       30.23F
OAK RIDGE      CLOUDY    69  59  70 CALM      30.26S
GATLINBURG     MOCLDY    61  57  88 CALM      30.25S
MORRISTOWN     PTCLDY    63  57  82 CALM      30.27S
$$

TNZ083-085-099-060700-
SOUTHEAST TENNESSEE

CITY           SKY/WX    TMP DP  RH WIND       PRES   REMARKS
CHATTANOOGA    CLEAR     67  57  70 CALM      30.23F
$$

SKY/WX REPORTED AS FAIR MEANS FEW OR NO CLOUDS BELOW
12 THOUSAND FEET.



USA.gov is the U.S. government's official web portal to all federal, state and local government web resources and services.